Tracking 25648 objects as of 17-May-2022
HD Live streaming from Space Station
objects crossing your sky now

COSMOS 2251 DEB

Track COSMOS 2251 DEB now!
10-day predictions


NORAD ID: 34755
Int'l Code: 1993-036ZZ
Perigee: 777.8 km
Apogee: 1,403.0 km
Inclination: 73.9 °
Period: 106.9 minutes
Semi major axis: 7461 km
RCS: 0.0048 m2 (small)
Launch date: June 16, 1993
Source: Commonwealth of Independent States (former USSR) (CIS)
Launch site: PLESETSK MISSILE AND SPACE COMPLEX (PKMTR)

Note: This is SATELLITE DEBRIS
aabbcc
Your satellite tracking list
Your tracking list is empty




NASA's NSSDC Master Catalog

Two Line Element Set (TLE):
1 34755U 93036ZZ  22136.63276898  .00000357  00000-0  36186-3 0  9990
2 34755  73.9276 221.7610 0418956 124.0692 309.3045 13.47010926650172
Source of the keplerian elements: AFSPC